Weather History for Claremore, OK

Change the Weather History Date:

Friday, September 14, 2012

  Actual Average (KTUL) Record (KTUL)
Temperature  
Mean Temperature 58 °F 74 °F  
Max Temperature 60 °F 85 °F 103 °F (1965)
Min Temperature 55 °F 63 °F 46 °F (1961)
Degree Days  
Heating Degree Days 8 0  
Month to date heating degree days 0  
Since 1 July heating degree days 0  
Cooling Degree Days 0 9  
Month to date cooling degree days 161  
Year to date cooling degree days 1862  
Growing Degree Days 8 (Base 50)    
Moisture  
Dew Point 58 °F    
Average Humidity 97    
Maximum Humidity 100    
Minimum Humidity 88    
Precipitation  
Precipitation 0.52 in 0.15 in 2.15 in (1957)
Month to date precipitation 1.97  
Year to date precipitation 29.45  
Sea Level Pressure  
Sea Level Pressure 30.25 in    
Wind  
Wind Speed 9 mph (NNE)    
Max Wind Speed 13 mph    
Max Gust Speed 21 mph    
Visibility 7 miles    
Events Rain    
T = Trace of Precipitation, MM = Missing Value Source: NWS Daily Summary

Daily Weather History Graph

Daily Weather History Graph

Search for Another Location

Airport:

Trip Planner

Search our weather history database for the weather conditions in past years. The results will help you decide how hot, cold, wet, or windy it might be!

Date:

Astronomy

Sep. 14, 2012 Rise Set
Actual Time 7:03 AM CDT 7:29 PM CDT
Civil Twilight 6:38 AM CDT 7:55 PM CDT
Nautical Twilight 6:07 AM CDT 8:25 PM CDT
Astronomical Twilight 5:36 AM CDT 8:56 PM CDT
Moon 5:30 AM CDT (9/14) 6:26 PM CDT (9/14)
Length of Visible Light 13h 17m
Length of Day
12h 26m
Waning Crescent, 2% of the Moon is Illuminated
Sep 14
Waning Crescent
Sep 15
New
Sep 22
First Quarter
Sep 29
Full
Oct 8
Last Quarter

Hourly Weather History & Observations

Time (CDT) Temp. Dew Point Humidity Pressure Visibility Wind Dir Wind Speed Gust Speed Precip Events Conditions
12:15 AM 59.0 °F 55.4 °F 88% 30.27 in 10.0 mi NNE 12.7 mph 17.3 mph N/A Rain Light Rain
12:35 AM 59.0 °F 55.4 °F 88% 30.27 in 10.0 mi NNE 11.5 mph 17.3 mph N/A   Mostly Cloudy
12:55 AM 59.0 °F 55.4 °F 88% 30.26 in 10.0 mi NNE 10.4 mph - N/A   Overcast
1:15 AM 59.0 °F 55.4 °F 88% 30.26 in 10.0 mi NNE 10.4 mph 16.1 mph N/A   Overcast
1:35 AM 59.0 °F 55.4 °F 88% 30.26 in 10.0 mi NE 10.4 mph - N/A   Light Drizzle
1:55 AM 57.2 °F 55.4 °F 94% 30.26 in 10.0 mi NNE 9.2 mph 18.4 mph N/A Rain Light Rain
2:15 AM 57.2 °F 55.4 °F 94% 30.26 in 7.0 mi North 8.1 mph - 0.01 in Rain Rain
2:35 AM 57.2 °F 55.4 °F 94% 30.26 in 7.0 mi North 8.1 mph - 0.01 in Rain Rain
2:55 AM 57.2 °F 55.4 °F 94% 30.25 in 7.0 mi NNE 8.1 mph - 0.03 in Rain Light Rain
3:15 AM 57.2 °F 55.4 °F 94% 30.25 in 7.0 mi NE 10.4 mph - N/A Rain Rain
3:35 AM 57.2 °F 55.4 °F 94% 30.25 in 10.0 mi NE 8.1 mph 16.1 mph 0.01 in Rain Rain
3:55 AM 55.4 °F 55.4 °F 100% 30.24 in 2.0 mi NE 9.2 mph - 0.14 in Rain Rain
4:15 AM 55.4 °F 55.4 °F 100% 30.24 in 7.0 mi NNE 11.5 mph 20.7 mph 0.03 in Rain Rain
4:35 AM 55.4 °F 55.4 °F 100% 30.23 in 10.0 mi NNE 12.7 mph 17.3 mph 0.04 in Rain Rain
5:15 AM 55.4 °F 55.4 °F 100% 30.24 in 7.0 mi NNE 10.4 mph 19.6 mph 0.01 in Rain Rain
5:35 AM 55.4 °F 55.4 °F 100% 30.24 in 10.0 mi NNE 11.5 mph 19.6 mph 0.03 in Rain Light Rain
5:55 AM 55.4 °F 55.4 °F 100% 30.24 in 10.0 mi NNE 8.1 mph - 0.04 in Rain Light Rain
6:15 AM 55.4 °F 55.4 °F 100% 30.24 in 10.0 mi NNE 9.2 mph - 0.01 in Rain Light Rain
6:35 AM 55.4 °F 55.4 °F 100% 30.25 in 10.0 mi NNE 8.1 mph - 0.02 in Rain Light Rain
6:55 AM 55.4 °F 55.4 °F 100% 30.25 in 10.0 mi NNE 8.1 mph - 0.02 in Rain Light Rain
7:15 AM 55.4 °F 55.4 °F 100% 30.25 in 10.0 mi NNE 8.1 mph - N/A Rain Light Rain
7:35 AM 55.4 °F 55.4 °F 100% 30.26 in 10.0 mi North 6.9 mph - 0.01 in Rain Light Rain
7:55 AM 55.4 °F 55.4 °F 100% 30.26 in 10.0 mi North 6.9 mph - 0.02 in Rain Light Rain
8:15 AM 55.4 °F 55.4 °F 100% 30.26 in 10.0 mi NNE 6.9 mph - 0.01 in Rain Rain
8:35 AM 55.4 °F 55.4 °F 100% 30.27 in 7.0 mi NNE 8.1 mph - 0.05 in Rain Rain
8:55 AM 55.4 °F 55.4 °F 100% 30.27 in 5.0 mi North 5.8 mph - 0.07 in Rain Rain
9:15 AM 55.4 °F 55.4 °F 100% 30.27 in 7.0 mi NNE 10.4 mph - 0.02 in Rain Rain
9:35 AM 57.2 °F 55.4 °F 94% 30.27 in 7.0 mi NNE 9.2 mph - 0.04 in Rain Rain
9:55 AM 57.2 °F 55.4 °F 94% 30.27 in 10.0 mi NNE 9.2 mph - 0.06 in Rain Light Rain
10:15 AM 57.2 °F 55.4 °F 94% 30.28 in 10.0 mi NNE 5.8 mph - N/A   Drizzle
10:35 AM 59.0 °F 55.4 °F 88% 30.28 in 10.0 mi NNE 9.2 mph - N/A   Drizzle
10:55 AM 59.0 °F 57.2 °F 94% 30.28 in 10.0 mi NNE 6.9 mph - N/A   Light Drizzle
11:15 AM 59.0 °F 57.2 °F 94% 30.28 in 10.0 mi NNE 10.4 mph - N/A   Drizzle
11:35 AM 59.0 °F 57.2 °F 94% 30.28 in 10.0 mi NNE 6.9 mph - N/A   Light Drizzle
11:55 AM 59.0 °F 57.2 °F 94% 30.28 in 10.0 mi NNE 8.1 mph - N/A Rain Rain
12:15 PM 59.0 °F 57.2 °F 94% 30.28 in 7.0 mi NNE 8.1 mph - N/A   Drizzle
12:35 PM 59.0 °F 57.2 °F 94% 30.28 in 7.0 mi North 8.1 mph - N/A   Heavy Drizzle
12:55 PM 59.0 °F 57.2 °F 94% 30.28 in 7.0 mi North 6.9 mph - 0.01 in   Drizzle
1:15 PM 59.0 °F 57.2 °F 94% 30.28 in 10.0 mi NNE 8.1 mph - N/A   Light Drizzle
1:55 PM 59.0 °F 59.0 °F 100% 30.27 in 5.0 mi North 6.9 mph - N/A   Heavy Drizzle
2:15 PM 59.0 °F 59.0 °F 100% 30.27 in 5.0 mi NNE 8.1 mph - N/A   Drizzle
2:35 PM 59.0 °F 59.0 °F 100% 30.26 in 7.0 mi NNE 6.9 mph - N/A   Drizzle
2:55 PM 59.0 °F 59.0 °F 100% 30.25 in 10.0 mi North 9.2 mph 16.1 mph N/A Rain Rain
3:15 PM 59.0 °F 59.0 °F 100% 30.25 in 5.0 mi NNE 10.4 mph - 0.01 in   Drizzle
3:35 PM 59.0 °F 59.0 °F 100% 30.24 in 5.0 mi NNE 10.4 mph - 0.01 in   Drizzle
3:55 PM 60.8 °F 59.0 °F 94% 30.24 in 10.0 mi North 8.1 mph - 0.01 in Rain Light Rain
4:15 PM 60.8 °F 59.0 °F 94% 30.25 in 10.0 mi NNE 6.9 mph - N/A   Overcast
4:35 PM 60.8 °F 59.0 °F 94% 30.24 in 10.0 mi NNE 8.1 mph - N/A Rain Rain
4:55 PM 60.8 °F 59.0 °F 94% 30.24 in 4.0 mi North 5.8 mph - N/A   Overcast
5:15 PM 60.8 °F 59.0 °F 94% 30.23 in 3.0 mi NNE 6.9 mph - N/A   Overcast
5:35 PM 60.8 °F 59.0 °F 94% 30.23 in 2.5 mi North 5.8 mph - N/A   Heavy Drizzle
5:55 PM 60.8 °F 59.0 °F 94% 30.24 in 7.0 mi Calm Calm - N/A   Light Drizzle
6:15 PM 60.8 °F 60.8 °F 100% 30.24 in 5.0 mi North 4.6 mph - N/A Rain Rain
6:35 PM 60.8 °F 60.8 °F 100% 30.23 in 3.0 mi NE 6.9 mph - N/A   Drizzle
6:55 PM 60.8 °F 60.8 °F 100% 30.23 in 2.5 mi NNE 5.8 mph - N/A   Light Drizzle
7:15 PM 60.8 °F 60.8 °F 100% 30.23 in 2.5 mi NE 5.8 mph - N/A Rain Light Rain
7:35 PM 60.8 °F 60.8 °F 100% 30.23 in 2.5 mi NE 8.1 mph - N/A   Overcast
8:15 PM 60.8 °F 60.8 °F 100% 30.24 in 2.0 mi NE 8.1 mph - N/A Rain Light Rain
8:35 PM 60.8 °F 60.8 °F 100% 30.23 in 2.0 mi NE 8.1 mph - N/A   Drizzle
8:55 PM 60.8 °F 60.8 °F 100% 30.24 in 2.0 mi NE 8.1 mph - N/A   Light Drizzle
9:15 PM 60.8 °F 60.8 °F 100% 30.24 in 3.0 mi NE 9.2 mph - N/A   Overcast
9:35 PM 60.8 °F 60.8 °F 100% 30.24 in 3.0 mi NE 9.2 mph - N/A   Overcast
9:55 PM 60.8 °F 60.8 °F 100% 30.24 in 4.0 mi NE 9.2 mph - N/A   Overcast
10:15 PM 60.8 °F 60.8 °F 100% 30.25 in 3.0 mi NE 9.2 mph - N/A   Overcast
10:35 PM 60.8 °F 60.8 °F 100% 30.25 in 4.0 mi NE 9.2 mph - N/A   Overcast
10:55 PM 60.8 °F 60.8 °F 100% 30.25 in 3.0 mi NE 6.9 mph - N/A   Overcast
11:15 PM 60.8 °F 60.8 °F 100% 30.25 in 2.5 mi NE 6.9 mph - N/A   Drizzle
11:35 PM 60.8 °F 60.8 °F 100% 30.25 in 4.0 mi NE 4.6 mph - N/A   Drizzle
11:55 PM 60.8 °F 60.8 °F 100% 30.24 in 3.0 mi NE 4.6 mph - 0.08 in Rain Light Rain